Stoneville, NC

6:26 PM EST on February 25, 2017 (GMT -0500)
Reidsville

Weather History for KSIF - January, 2013

Change the Weather History Date:

Monday, January 21, 2013

  Actual Average (KGSO) Record (KGSO)
Temperature  
Mean Temperature 41 °F -  
Max Temperature 58 °F 45 °F 73 °F (1927)
Min Temperature 24 °F 25 °F -8 °F (1985)
Degree Days  
Heating Degree Days 24    
Moisture  
Dew Point 24 °F    
Average Humidity 60    
Maximum Humidity 98    
Minimum Humidity 28    
Precipitation  
Precipitation 0.00 in - - ()
Sea Level Pressure  
Sea Level Pressure 29.99 in    
Wind  
Wind Speed 3 mph (West)    
Max Wind Speed 17 mph    
Max Gust Speed 30 mph    
Visibility 10 miles    
Events      
Averages and records for this station are not official NWS values.
T = Trace of Precipitation, MM = Missing Value Source: NWS Daily Summary

Daily Weather History Graph

Daily Weather History Graph

Search for Another Location

Airport or City:

Trip Planner

Search our weather history database for the weather conditions in past years. The results will help you decide how hot, cold, wet, or windy it might be!

Date:

Astronomy

Jan. 21, 2013 Rise Set
Actual Time 7:27 AM EST 5:34 PM EST
Civil Twilight 7:00 AM EST 6:01 PM EST
Nautical Twilight 6:28 AM EST 6:33 PM EST
Astronomical Twilight 5:58 AM EST 7:03 PM EST
Moon 1:13 PM EST (1/21) 2:54 AM EST (1/21)
Length of Visible Light 11h 01m
Length of Day
10h 06m
Waxing Gibbous, 75% of the Moon is Illuminated
Jan 21
Waxing Gibbous
Jan 26
Full
Feb 3
Last Quarter
Feb 10
New
Feb 17
First Quarter

Hourly Weather History & Observations

Time (EST) Temp. Windchill Dew Point Humidity Pressure Visibility Wind Dir Wind Speed Gust Speed Precip Events Conditions
12:15 AM 32.7 °F - 29.8 °F 89% 30.08 in 10.0 mi Calm Calm - N/A   Clear
12:35 AM 32.0 °F - 29.3 °F 90% 30.07 in 10.0 mi Calm Calm - N/A   Clear
12:55 AM 32.0 °F - 29.3 °F 90% 30.07 in 10.0 mi Calm Calm - N/A   Clear
1:15 AM 31.6 °F - 28.9 °F 90% 30.07 in 10.0 mi Calm Calm - N/A   Clear
1:35 AM 31.3 °F - 28.0 °F 88% 30.07 in 10.0 mi Calm Calm - N/A   Clear
1:55 AM 31.8 °F - 29.3 °F 90% 30.08 in 10.0 mi Calm Calm - N/A   Clear
2:15 AM 29.8 °F - 27.5 °F 91% 30.08 in 10.0 mi Calm Calm - N/A   Clear
2:35 AM 30.0 °F - 27.7 °F 91% 30.08 in 10.0 mi Calm Calm - N/A   Clear
2:55 AM 27.9 °F - 26.8 °F 96% 30.08 in 10.0 mi Calm Calm - N/A   Clear
3:15 AM 27.9 °F - 27.1 °F 97% 30.08 in 10.0 mi Calm Calm - N/A   Clear
3:35 AM 27.3 °F - 26.6 °F 97% 30.07 in 10.0 mi Calm Calm - N/A   Clear
3:55 AM 26.4 °F - 25.3 °F 96% 30.07 in 10.0 mi Calm Calm - N/A   Clear
4:15 AM 26.6 °F - 25.7 °F 96% 30.06 in 10.0 mi Calm Calm - N/A   Clear
4:35 AM 26.6 °F - 25.7 °F 96% 30.06 in 10.0 mi Calm Calm - N/A   Clear
4:55 AM 27.0 °F - 26.2 °F 97% 30.06 in 10.0 mi Calm Calm - N/A   Clear
5:15 AM 26.1 °F - 25.5 °F 98% 30.06 in 10.0 mi Calm Calm - N/A   Clear
5:35 AM 26.2 °F - 25.7 °F 98% 30.06 in 10.0 mi Calm Calm - N/A   Clear
5:55 AM 26.4 °F - 25.5 °F 96% 30.07 in 10.0 mi Calm Calm - N/A   Clear
6:15 AM 25.2 °F - 24.3 °F 96% 30.06 in 10.0 mi Calm Calm - N/A   Clear
6:55 AM 24.4 °F - 23.4 °F 96% 30.06 in 10.0 mi Calm Calm - N/A   Clear
7:15 AM 24.4 °F - 23.5 °F 96% 30.05 in 10.0 mi Calm Calm - N/A   Clear
7:35 AM 24.4 °F - 23.7 °F 97% 30.06 in 10.0 mi Calm Calm - N/A   Clear
7:55 AM 26.2 °F - 25.5 °F 97% 30.06 in 10.0 mi Calm Calm - N/A   Clear
8:15 AM 27.9 °F - 27.1 °F 97% 30.05 in 10.0 mi Calm Calm - N/A   Clear
8:35 AM 29.7 °F - 28.6 °F 96% 30.06 in 10.0 mi Calm Calm - N/A   Clear
8:55 AM 32.2 °F - 30.7 °F 94% 30.06 in 10.0 mi Calm Calm - N/A   Clear
9:15 AM 35.8 °F - 32.0 °F 86% 30.06 in 10.0 mi Calm Calm - N/A   Clear
9:35 AM 38.1 °F - 33.1 °F 82% 30.06 in 10.0 mi Calm Calm - N/A   Clear
9:55 AM 39.2 °F - 32.2 °F 76% 30.06 in 10.0 mi Calm Calm - N/A   Clear
10:15 AM 40.8 °F - 32.0 °F 71% 30.07 in 10.0 mi Calm Calm - N/A   Clear
10:35 AM 43.9 °F - 27.3 °F 52% 30.06 in 10.0 mi Calm Calm - N/A   Clear
10:55 AM 46.2 °F - 27.0 °F 47% 30.06 in 10.0 mi Calm Calm - N/A   Clear
11:15 AM 47.5 °F - 27.9 °F 47% 30.05 in 10.0 mi Calm Calm - N/A   Clear
11:35 AM 49.1 °F - 29.5 °F 47% 30.03 in 10.0 mi SSW 4.6 mph - N/A   Clear
11:55 AM 50.7 °F - 31.3 °F 47% 30.02 in 10.0 mi WSW 6.9 mph - N/A   Clear
12:15 PM 51.4 °F - 32.0 °F 47% 30.01 in 10.0 mi SW 10.4 mph 17.3 mph N/A   Clear
12:35 PM 52.3 °F - 32.0 °F 46% 29.97 in 10.0 mi SW 9.2 mph 18.4 mph N/A   Clear
12:55 PM 53.1 °F - 32.0 °F 45% 29.95 in 10.0 mi SW 8.1 mph 17.3 mph N/A   Clear
1:15 PM 54.5 °F - 30.4 °F 40% 29.93 in 10.0 mi SW 10.4 mph 17.3 mph N/A   Clear
1:35 PM 55.4 °F - 29.7 °F 37% 29.91 in 10.0 mi SW 10.4 mph 19.6 mph N/A   Clear
1:55 PM 56.7 °F - 29.5 °F 35% 29.91 in 10.0 mi WSW 9.2 mph 17.3 mph N/A   Clear
2:15 PM 56.7 °F - 28.8 °F 34% 29.90 in 10.0 mi WSW 13.8 mph 19.6 mph N/A   Clear
2:35 PM 57.2 °F - 29.1 °F 34% 29.88 in 10.0 mi SSW 10.4 mph - N/A   Clear
2:55 PM 57.2 °F - 28.8 °F 34% 29.88 in 10.0 mi WSW 11.5 mph 19.6 mph N/A   Clear
3:15 PM 58.1 °F - 28.6 °F 32% 29.87 in 10.0 mi SW 16.1 mph 25.3 mph N/A   Clear
3:35 PM 58.1 °F - 24.8 °F 28% 29.87 in 10.0 mi WSW 17.3 mph 26.5 mph N/A   Clear
3:55 PM 57.4 °F - 24.3 °F 28% 29.87 in 10.0 mi West 9.2 mph 29.9 mph N/A   Clear
4:15 PM 57.2 °F - 24.3 °F 28% 29.86 in 10.0 mi West 9.2 mph 23.0 mph N/A   Clear
4:35 PM 56.3 °F - 24.8 °F 30% 29.87 in 10.0 mi West 9.2 mph - N/A   Clear
4:55 PM 55.4 °F - 23.0 °F 29% 29.87 in 10.0 mi West 16.1 mph 26.5 mph N/A   Clear
5:15 PM 53.8 °F - 23.0 °F 30% 29.88 in 10.0 mi West 8.1 mph 24.2 mph N/A   Clear
5:55 PM 50.2 °F - 20.3 °F 31% 29.90 in 10.0 mi WNW 11.5 mph 19.6 mph N/A   Clear
6:15 PM 48.9 °F - 19.0 °F 31% 29.91 in 10.0 mi West 8.1 mph 17.3 mph N/A   Clear
6:35 PM 47.8 °F - 18.7 °F 31% 29.91 in 10.0 mi West 11.5 mph 23.0 mph N/A   Clear
6:55 PM 46.8 °F - 18.3 °F 32% 29.92 in 10.0 mi West 8.1 mph - N/A   Clear
7:15 PM 45.5 °F 40.8 °F 18.1 °F 34% 29.93 in 10.0 mi West 9.2 mph - N/A   Clear
7:35 PM 44.8 °F 39.9 °F 15.1 °F 30% 29.94 in 10.0 mi West 9.2 mph - N/A   Clear
7:55 PM 44.6 °F 39.2 °F 13.3 °F 28% 29.94 in 10.0 mi West 10.4 mph - N/A   Clear
8:15 PM 43.7 °F 38.6 °F 13.1 °F 29% 29.94 in 10.0 mi West 9.2 mph 23.0 mph N/A   Clear
8:35 PM 43.2 °F 39.0 °F 13.1 °F 30% 29.94 in 10.0 mi WNW 6.9 mph 17.3 mph N/A   Clear
8:55 PM 41.9 °F 37.5 °F 13.8 °F 32% 29.94 in 10.0 mi West 6.9 mph - N/A   Clear
9:15 PM 41.9 °F 36.3 °F 13.8 °F 32% 29.94 in 10.0 mi West 9.2 mph - N/A   Clear
9:35 PM 41.5 °F 35.9 °F 13.8 °F 32% 29.95 in 10.0 mi West 9.2 mph 16.1 mph N/A   Clear
9:55 PM 41.4 °F 37.6 °F 13.6 °F 32% 29.95 in 10.0 mi West 5.8 mph - N/A   Clear
10:15 PM 40.3 °F 37.1 °F 13.5 °F 34% 29.95 in 10.0 mi West 4.6 mph - N/A   Clear
10:35 PM 38.3 °F 34.8 °F 13.6 °F 37% 29.96 in 10.0 mi West 4.6 mph - N/A   Clear
10:55 PM 37.4 °F 32.8 °F 14.2 °F 39% 29.96 in 10.0 mi WNW 5.8 mph - N/A   Clear
11:15 PM 38.3 °F 32.5 °F 12.7 °F 35% 29.96 in 10.0 mi WNW 8.1 mph - N/A   Clear
11:35 PM 37.6 °F 33.1 °F 12.0 °F 35% 29.97 in 10.0 mi WNW 5.8 mph - N/A   Clear
11:55 PM 36.9 °F 33.1 °F 11.7 °F 35% 29.98 in 10.0 mi WNW 4.6 mph - N/A   Clear